Helicity
287 143 121 65 50 83 40 50 43 37 34 58 49 69 101 69 67 13 20 17 21 29 46 41 51 -19 -0 31 59 56 90 94 123 93 104 73 61 56 38 63 105 90 170 156
201 134 95 64 54 90 43 82 36 25 8 54 33 62 84 55 83 19 1 11 4 12 39 63 41 -8 2 22 40 49 83 54 71 97 102 104 71 57 45 -1 15 94 136 174
157 130 107 61 55 -7 65 53 33 30 1 18 66 88 99 102 15 11 -8 9 10 14 28 24 47 2 -19 12 30 43 39 66 49 59 67 58 44 26 13 -16 41 77 103 159
109 131 79 49 16 -23 63 39 22 -9 44 64 70 83 92 122 107 -1 -17 10 6 17 30 32 41 36 -16 -10 12 19 18 39 48 55 33 40 45 35 16 23 7 27 91 137
166 149 151 46 17 18 48 29 22 43 29 84 102 78 91 103 85 54 17 15 -0 11 19 18 27 30 28 -16 4 22 27 22 12 26 1 10 21 54 37 29 10 66 98 130
161 152 91 50 45 28 46 29 31 31 39 57 61 75 94 82 66 -7 -32 -2 7 8 9 2 6 29 48 37 14 25 20 7 6 35 38 29 63 70 37 31 32 68 81 151
154 183 160 68 -11 -28 36 26 33 37 60 49 55 75 57 74 38 62 -19 -32 -21 -23 -34 -12 7 21 31 27 20 8 37 62 67 88 65 41 42 70 6 -7 6 92 132 177
144 144 99 57 -57 -10 46 36 29 28 44 34 43 73 59 43 -2 -0 -12 -34 -30 -42 -26 16 18 21 27 18 12 33 28 58 54 53 39 47 43 56 39 22 -12 42 44 117
168 157 122 32 4 26 53 45 29 20 35 67 47 52 43 44 36 17 -3 -39 -47 -31 -11 2 38 42 20 21 9 5 26 52 51 61 38 15 72 77 63 39 20 9 12 28
185 153 86 41 25 82 40 37 35 27 23 56 33 22 33 8 4 23 -6 -16 -31 -30 -0 15 27 22 14 15 17 19 -3 -10 -3 37 21 21 43 58 39 32 27 34 15 15
150 117 177 34 12 72 42 46 57 16 17 59 -5 -20 -1 -7 -9 18 8 9 -31 -15 6 21 15 14 13 7 3 6 5 -12 -15 -19 -9 8 38 11 29 27 26 41 47 39
135 161 122 -83 -2 52 37 68 90 84 33 18 2 14 32 -4 -21 -11 -17 -10 -9 -8 -6 -15 8 18 -2 9 14 -14 -7 6 3 -5 -3 9 18 21 29 18 25 41 42 52
192 126 48 -95 -5 56 35 78 67 117 99 40 3 -12 23 22 26 -15 -14 -23 -20 -18 8 11 -1 24 -4 36 7 -2 -10 -6 2 -4 6 35 31 33 41 48 27 36 41 44
218 87 59 -70 41 61 51 82 79 49 13 16 1 31 -30 -20 -15 -26 -28 10 -9 -0 16 -10 15 14 -10 20 14 19 22 -5 -11 -3 -3 21 35 31 28 11 42 44 72 56
161 151 65 -29 63 62 105 104 80 58 25 21 6 -15 2 -15 -25 -30 -9 5 6 5 -9 -8 17 5 20 12 13 21 -0 11 18 6 9 -1 -1 24 27 33 42 59 45 46
188 238 121 -24 33 100 104 98 56 75 49 53 25 7 -7 -23 -10 -4 -14 -17 -16 -8 -3 -4 -8 1 13 36 53 39 32 12 19 18 -8 1 -5 26 55 40 37 40 40 42
227 249 113 -1 101 106 95 89 56 112 56 47 45 34 2 -6 -8 -12 -15 -12 -2 1 5 3 12 12 17 28 52 92 62 40 16 -3 -19 -0 -0 -3 7 51 56 59 66 70
259 250 85 89 89 90 72 94 113 120 56 66 44 37 32 -2 9 14 -6 17 32 12 13 10 32 27 26 19 35 68 47 29 37 12 12 -3 -21 -20 -13 27 72 68 67 68
294 215 182 214 103 116 72 64 114 115 60 69 54 45 28 45 39 29 13 21 39 23 22 31 42 49 42 40 64 51 33 23 18 -1 5 36 35 21 18 11 15 58 76 89
357 420 367 250 190 91 128 101 89 116 93 93 48 67 56 66 70 57 45 32 53 51 52 29 49 45 26 48 57 56 41 19 19 19 28 21 12 13 -3 -7 61 59 78 83
469 445 350 253 165 177 179 84 89 97 43 46 72 88 113 58 89 83 42 65 58 73 56 81 71 70 61 65 65 48 46 46 37 43 40 46 41 32 18 15 54 73 76 79
359 275 281 307 277 262 173 107 94 51 34 55 91 148 140 98 85 91 58 88 87 83 63 90 87 80 66 58 70 63 58 57 48 50 45 43 46 47 44 41 41 67 80 85
553 451 387 287 200 169 124 117 119 74 38 60 112 164 120 111 94 98 98 123 115 85 106 90 83 84 49 64 74 71 61 59 60 51 45 44 39 43 54 53 62 85 93 93
458 418 358 209 172 186 122 139 101 86 84 129 175 184 123 92 117 101 141 108 122 121 103 92 59 62 76 81 85 91 77 71 65 60 55 54 50 45 51 79 104 106 86 83
525 363 281 245 222 199 197 176 209 181 115 182 187 169 116 155 140 114 138 120 107 85 89 117 72 83 108 102 99 93 85 81 80 89 80 67 61 64 70 89 103 95 86 88
421 270 232 280 290 216 211 224 226 196 159 170 173 157 168 170 142 136 127 157 115 114 104 70 107 108 101 101 98 98 103 101 102 101 94 81 77 84 95 99 96 95 95 100
330 322 264 253 270 194 173 174 156 151 153 151 150 159 142 124 134 126 105 117 115 63 72 85 91 105 97 91 101 109 114 115 108 104 93 85 94 113 115 97 112 96 101 111
Wind_Speed
43 33 26 21 18 14 10 26 26 22 20 30 32 36 37 37 36 36 39 39 41 41 45 48 46 44 41 31 25 35 22 24 24 18 23 31 29 25 26 26 29 32 44 51
53 29 31 22 16 31 14 14 27 28 28 29 32 35 39 37 38 39 39 41 39 39 44 44 44 40 38 27 25 29 15 18 26 22 23 24 29 33 30 22 26 39 50 53
33 30 29 23 25 31 32 23 27 31 38 33 31 36 37 39 37 41 39 40 39 41 43 47 44 41 36 29 23 18 17 18 21 31 30 32 33 37 36 33 25 27 31 40
32 31 30 24 29 57 33 32 36 37 34 35 34 36 37 40 40 39 39 41 44 42 44 43 46 42 36 36 24 23 20 22 24 31 33 31 35 36 36 23 28 25 27 28
39 44 28 22 30 16 35 28 36 30 23 36 36 37 36 38 39 41 41 42 41 40 44 43 44 41 41 38 27 29 22 24 22 26 28 36 34 30 30 31 31 27 27 22
49 44 41 32 23 21 37 40 31 23 18 32 35 36 40 38 41 39 43 41 42 42 42 39 35 33 35 36 36 33 22 20 20 27 26 24 28 32 38 26 28 29 21 26
49 55 50 40 40 52 38 39 32 28 29 38 36 40 40 41 39 41 41 42 42 41 36 37 41 42 41 39 39 26 24 21 23 27 29 25 26 28 41 32 32 41 37 35
53 58 49 54 55 51 39 35 32 29 19 31 33 39 40 42 41 40 42 40 39 35 40 44 44 41 39 39 38 34 27 25 22 23 21 28 27 26 31 32 30 40 42 40
50 53 49 53 58 53 36 32 29 25 20 36 20 39 41 42 42 43 41 39 36 40 40 40 45 45 41 38 37 33 34 31 25 25 23 24 29 32 33 34 29 31 40 48
49 50 51 46 48 36 31 29 30 22 17 23 15 39 40 41 41 42 41 40 41 38 40 42 42 44 38 40 37 36 36 35 34 23 25 27 32 36 33 33 34 40 42 47
51 53 51 38 16 26 28 28 29 23 18 17 19 34 40 42 42 42 41 42 37 38 40 40 39 41 39 39 37 35 35 34 32 30 29 9 39 32 32 36 40 41 43 44
42 49 38 28 16 27 26 25 16 11 15 14 16 20 17 39 41 42 41 38 40 38 39 38 39 39 36 37 39 34 35 32 30 29 24 31 34 30 31 32 34 38 37 35
36 41 45 24 31 34 27 21 12 8 6 13 18 22 18 20 21 38 38 37 36 37 37 40 38 38 36 37 34 34 32 31 31 29 16 31 32 34 34 35 32 34 35 32
37 41 38 26 22 25 24 22 27 15 12 14 19 20 25 28 30 34 40 42 41 40 39 38 36 36 33 34 33 32 30 28 28 27 25 20 32 35 37 37 38 36 35 32
39 43 33 27 18 15 14 17 23 23 23 14 16 24 24 28 32 35 37 40 39 37 36 35 34 32 33 32 32 29 29 29 28 25 25 20 15 40 38 37 37 38 35 34
38 38 31 26 12 17 27 29 28 25 17 13 15 21 24 30 31 34 35 36 36 35 35 33 31 30 31 30 27 28 29 27 25 24 18 14 15 18 37 37 35 33 34 33
41 33 33 22 24 34 34 32 28 27 22 18 15 18 21 25 29 30 32 33 32 33 32 31 31 29 28 26 26 26 26 26 24 24 20 19 18 13 15 34 36 35 33 33
41 32 27 16 13 26 35 28 26 26 17 21 17 20 16 18 23 25 27 28 29 28 29 29 28 28 25 24 22 24 23 24 20 23 22 13 8 9 10 14 33 39 40 40
41 33 22 23 36 41 39 27 24 21 23 21 19 12 13 15 20 23 24 25 26 26 24 23 25 23 21 21 20 20 21 22 23 24 22 22 19 20 19 15 13 30 43 45
43 39 36 42 40 27 26 31 30 32 34 27 19 14 15 14 18 21 23 23 23 24 21 23 20 18 15 21 23 23 24 25 26 26 26 27 21 18 17 16 41 35 45 50
55 52 44 31 31 33 36 35 35 34 31 25 17 11 10 14 16 19 21 22 21 23 22 20 23 22 18 17 19 22 25 27 27 25 24 24 21 20 19 23 41 52 45 39
57 36 23 25 36 38 43 41 36 31 29 19 12 7 10 13 18 22 20 22 23 23 21 22 25 21 21 20 21 23 25 28 30 31 32 32 29 26 24 24 29 51 55 55
45 37 40 39 41 48 49 44 35 27 16 11 5 5 12 15 20 22 23 22 21 22 23 23 20 20 19 20 23 25 28 30 32 35 37 39 39 36 32 31 34 42 50 54
53 55 60 54 54 56 46 43 28 22 13 5 4 9 17 17 18 21 24 23 24 21 22 22 19 15 17 20 24 28 32 36 39 42 44 43 43 40 37 35 37 38 38 44
57 54 66 62 47 39 37 24 20 19 4 5 3 15 20 18 20 23 25 24 21 19 21 21 18 17 19 22 27 32 37 42 45 47 48 47 45 44 41 39 36 31 34 40
53 49 52 49 42 37 31 25 15 12 9 9 16 17 22 22 20 24 22 20 20 24 20 20 19 19 23 28 34 40 44 48 50 52 51 50 48 46 44 44 39 33 38 43
59 58 43 45 41 35 29 20 16 13 14 18 18 21 23 19 26 27 23 22 25 21 20 18 20 25 30 34 39 44 48 52 55 56 55 54 51 48 47 45 41 37 34 36
Wind_Direction
198 193 194 194 220 112 95 265 305 314 18 45 61 61 73 77 80 76 68 66 61 64 57 60 66 76 95 142 132 111 160 183 185 208 222 210 221 243 250 249 245 254 246 242
211 196 171 186 191 130 260 296 270 277 281 77 76 84 76 84 81 75 71 67 68 70 66 67 72 85 114 163 145 128 205 194 193 205 222 233 223 218 233 269 280 268 255 249
185 201 182 186 142 139 241 271 265 253 224 184 99 86 85 85 87 78 79 75 78 78 74 73 76 84 112 168 183 180 228 217 194 184 215 241 236 214 205 206 251 266 271 259
199 193 191 170 141 153 242 250 236 220 139 147 109 89 95 89 86 85 85 80 77 79 78 80 78 83 103 137 210 199 209 235 238 226 225 238 219 214 214 247 223 242 242 249
210 207 191 193 137 215 243 254 231 244 283 89 85 97 106 98 94 90 84 82 84 86 85 87 83 85 94 110 182 192 212 198 238 215 232 205 215 238 235 232 227 248 241 272
211 207 207 210 142 216 235 227 243 259 284 84 87 111 107 107 102 95 87 90 89 87 93 91 96 104 106 114 135 173 214 233 220 192 219 238 235 248 234 268 260 243 264 268
212 209 213 216 140 214 227 225 234 242 238 122 109 103 105 104 109 98 94 95 92 97 100 99 97 99 100 105 111 224 228 219 193 191 199 231 245 248 212 226 250 222 232 242
211 211 215 213 217 223 232 236 237 238 300 83 73 94 93 99 104 107 100 100 105 103 103 93 90 91 94 98 107 135 236 234 233 224 220 211 226 238 230 237 255 234 212 206
210 215 217 219 214 219 236 241 248 257 21 200 151 97 106 104 103 105 106 108 110 107 98 91 81 79 91 97 99 128 154 197 249 258 266 270 261 268 275 264 282 265 245 222
213 215 217 220 215 230 243 250 244 263 321 245 157 105 106 112 108 103 105 106 101 105 92 84 82 83 95 92 99 101 110 121 125 224 288 267 275 277 285 270 272 268 263 250
212 212 217 218 224 238 244 246 246 259 296 277 288 77 101 110 111 103 107 99 105 98 86 84 86 85 92 93 100 105 106 108 112 116 102 42 302 301 288 277 286 296 293 284
210 213 218 216 229 235 240 242 254 293 326 345 346 356 306 137 110 98 102 95 100 97 91 89 87 88 93 94 93 103 102 105 109 106 89 317 311 318 320 321 315 308 316 321
206 217 216 215 228 230 244 235 237 290 341 344 336 360 312 320 181 125 93 99 104 99 102 92 90 86 95 89 93 97 102 104 107 117 57 326 323 320 317 316 320 320 322 332
204 211 218 218 240 236 240 229 234 263 323 330 341 273 2 13 18 35 86 87 88 95 93 85 88 85 96 88 90 95 99 102 99 107 106 22 328 325 319 315 312 320 322 327
203 212 216 217 233 233 227 240 251 261 285 330 26 23 340 7 35 48 52 71 79 86 83 82 86 92 89 90 87 92 93 96 93 95 109 115 100 320 321 320 318 315 317 318
197 206 211 219 217 220 227 243 259 269 288 334 354 2 15 39 39 44 45 59 69 75 78 83 89 92 88 84 83 88 90 91 93 91 103 121 145 30 327 319 321 322 321 317
196 201 207 215 234 226 233 246 258 258 276 313 350 15 30 57 49 49 48 52 68 70 74 81 82 88 88 79 76 91 86 76 75 65 64 77 85 109 42 332 321 318 316 314
189 190 199 209 222 227 239 262 258 257 285 308 339 353 39 62 49 40 52 58 59 67 70 74 75 74 76 67 84 86 72 57 63 50 52 71 109 123 126 22 329 315 309 308
178 176 194 234 238 234 237 253 261 270 286 307 324 44 39 60 37 38 56 54 45 52 61 71 67 64 63 68 81 84 61 50 39 31 30 34 40 35 27 18 6 330 311 303
174 205 230 234 238 229 237 253 256 266 279 298 326 2 10 53 44 31 40 41 47 43 51 59 54 45 62 54 52 47 40 34 29 28 26 21 18 14 6 356 327 327 313 305
209 217 230 229 222 236 242 251 254 263 279 297 312 346 32 30 32 29 26 29 38 25 35 45 33 33 56 63 46 37 28 24 21 19 14 8 4 359 353 346 330 315 318 316
207 207 211 221 235 243 242 247 257 269 276 301 316 340 12 19 15 7 14 11 13 18 42 29 20 35 53 57 42 31 22 16 13 9 2 358 353 348 340 335 331 319 313 311
196 214 224 231 240 239 242 238 253 265 283 294 319 351 12 10 357 356 356 3 6 20 13 14 22 45 53 42 29 20 13 8 3 357 353 349 344 341 336 331 331 327 320 314
214 217 219 233 237 243 246 243 246 270 291 123 107 340 349 2 351 351 349 354 2 5 5 13 37 58 43 28 17 9 2 356 351 347 344 341 340 338 337 334 331 327 324 319
217 227 228 233 243 249 245 248 248 260 178 137 333 331 346 349 350 340 343 354 2 10 14 24 38 43 30 14 4 357 352 349 346 344 341 340 339 337 335 335 333 329 325 320
223 234 234 232 235 238 243 243 225 229 191 279 311 324 329 330 340 330 334 351 352 1 14 29 38 26 11 1 353 349 348 346 344 343 341 340 339 337 337 337 336 332 329 323
227 232 239 233 236 235 239 227 235 208 245 274 307 311 316 350 326 321 334 341 350 10 20 33 22 6 358 352 349 348 347 346 344 343 341 339 339 339 338 335 337 334 329 324